Flag for Canada Weather past 2 weeks in Barrie, Ontario, Canada

Now
36 °F

Clear.


Feels Like: 32 °F
Forecast: 30 / 47 °F
Wind: 5 mph from Northwest

Location: Borden

Current Time: Apr 26, 2015 at 12:53:19 AM

Latest Report: Apr 26, 2015 at 12:00 AM


Visibility: 9 mi

Pressure: 29.87 "Hg

Humidity: 75%

Dew point: 28 °F

Location of BarrieLocation

Historic Weather in Barrie — Graph

°F

Barrie temperature yesterday

Maximum temperature yesterday: 46 °F (at 1:00 PM)
Minimum temperature yesterday: 18 °F (at 5:00 AM)
Average temperature yesterday: 34 °F

Past Weeks' High & Low Weather Summary

 TemperatureHumidityPressure
High73 °F (Apr 13, 2:00 PM)100% (Apr 14, 2:00 AM)30.44 "Hg (Apr 14, 2:00 AM)
Low18 °F (Apr 25, 5:00 AM)18% (Apr 19, 7:00 PM)29.31 "Hg (Apr 20, 4:48 PM)
Average43 °F69%29.95 "Hg
* Reported Apr 10 11:00 PM — Apr 25 11:00 PM, Barrie, Weather by CustomWeather, © 2015

Note: Actual official high and low records may vary slightly from our data, if they occured in-between our weather recording intervals... More about our weather records

Advertising

Barrie weather history for previous 24 hours

 ConditionsComfort  
Time TempWeatherWind HumidityBarometerVisibility
11:00 PM
Sat, Apr 25
34 °FClear.3 mph75%29.87 "Hg9 mi
10:00 PM36 °FClear.3 mph70%29.87 "Hg9 mi
9:00 PM37 °FSunny.2 mph65%29.86 "Hg9 mi
8:00 PM39 °FSunny.5 mph61%29.86 "Hg9 mi
7:00 PM43 °FSunny.7 mph49%29.86 "Hg9 mi
6:00 PM45 °FSunny.9 mph46%29.86 "Hg9 mi
5:00 PM46 °FSunny.8 mph43%29.86 "Hg9 mi
4:00 PM46 °FSunny.8 mph43%29.88 "Hg9 mi
3:00 PM45 °FSunny.8 mph42%29.90 "Hg9 mi
2:00 PM46 °FSunny.10 mph40%29.92 "Hg9 mi
1:00 PM46 °FSunny.9 mph43%29.95 "Hg9 mi
12:00 PM45 °FSunny.9 mph39%29.98 "Hg9 mi
11:00 AM45 °FPassing clouds.7 mph42%29.99 "Hg9 mi
10:00 AM41 °FSunny.8 mph49%29.99 "Hg9 mi
9:00 AM37 °FSunny.6 mph60%30.00 "Hg9 mi
8:00 AM28 °FSunny.No wind86%30.02 "Hg9 mi
7:00 AM19 °FClear.No wind93%30.02 "Hg9 mi
6:00 AM18 °FClear.No wind86%30.02 "Hg9 mi
5:00 AM18 °FClear.2 mph93%30.02 "Hg9 mi
4:00 AM19 °FClear.2 mph93%30.03 "Hg9 mi
3:00 AM19 °FClear.No wind93%30.02 "Hg9 mi
2:00 AM21 °FClear.No wind93%30.03 "Hg9 mi
1:00 AM21 °FClear.3 mph100%30.05 "Hg9 mi
12:00 AM25 °FClear.5 mph86%30.05 "Hg9 mi
Weather by CustomWeather, © 2015

See weather overviewHow to use our weather pages